TimeCET,TemperatureF,Dew PointF,Humidity,Sea Level PressureIn,VisibilityMPH,Wind Direction,Wind SpeedMPH,Gust SpeedMPH,PrecipitationIn,Events,Conditions,WindDirDegrees,DateUTC
12:20 AM,51.8,39.2,62,29.95,6.2,SSW,13.8,28.8,N/A,,Mostly Cloudy,200,2012-12-11 23:20:00
12:50 AM,55.4,41.0,58,29.95,6.2,West,20.7,-,N/A,,Mostly Cloudy,280,2012-12-11 23:50:00
1:20 AM,55.4,41.0,58,29.95,6.2,West,23.0,-,N/A,,Mostly Cloudy,280,2012-12-12 00:20:00
1:50 AM,55.4,37.4,51,29.95,6.2,West,24.2,-,N/A,,Mostly Cloudy,270,2012-12-12 00:50:00
2:20 AM,55.4,37.4,51,29.95,6.2,West,21.9,-,N/A,,Mostly Cloudy,280,2012-12-12 01:20:00
2:50 AM,53.6,37.4,54,29.98,6.2,West,19.6,-,N/A,,Mostly Cloudy,280,2012-12-12 01:50:00
3:20 AM,55.4,39.2,54,29.98,6.2,West,21.9,-,N/A,,Mostly Cloudy,270,2012-12-12 02:20:00
3:50 AM,55.4,37.4,51,29.95,6.2,West,16.1,-,N/A,,Mostly Cloudy,280,2012-12-12 02:50:00
4:20 AM,51.8,42.8,71,29.95,4.3,NW,19.6,35.7,N/A,Rain,Rain,310,2012-12-12 03:20:00
4:50 AM,51.8,42.8,71,29.98,6.2,Variable,5.8,17.3,N/A,,Mostly Cloudy,0,2012-12-12 03:50:00
5:20 AM,51.8,42.8,71,29.98,6.2,NNW,21.9,-,N/A,,Mostly Cloudy,330,2012-12-12 04:20:00
5:50 AM,51.8,41.0,67,29.98,6.2,NNW,13.8,-,N/A,,Scattered Clouds,340,2012-12-12 04:50:00
6:20 AM,51.8,39.2,62,29.98,6.2,NW,13.8,-,N/A,,Scattered Clouds,320,2012-12-12 05:20:00
6:50 AM,51.8,41.0,67,30.01,6.2,NW,19.6,-,N/A,,Mostly Cloudy,320,2012-12-12 05:50:00
7:20 AM,51.8,39.2,62,30.01,6.2,NW,5.8,-,N/A,,Mostly Cloudy,320,2012-12-12 06:20:00
7:50 AM,53.6,39.2,58,30.04,6.2,NNW,6.9,-,N/A,,Scattered Clouds,340,2012-12-12 06:50:00
8:20 AM,50.0,39.2,66,30.04,6.2,Variable,1.2,-,N/A,,Scattered Clouds,0,2012-12-12 07:20:00
8:50 AM,50.0,41.0,71,30.04,6.2,Variable,3.5,-,N/A,,Scattered Clouds,0,2012-12-12 07:50:00
9:20 AM,53.6,37.4,54,30.04,6.2,NW,9.2,-,N/A,,Scattered Clouds,320,2012-12-12 08:20:00
9:50 AM,53.6,37.4,54,30.06,6.2,NNW,9.2,-,N/A,,Partly Cloudy,340,2012-12-12 08:50:00
10:20 AM,55.4,39.2,54,30.06,6.2,NNW,8.1,-,N/A,,Scattered Clouds,340,2012-12-12 09:20:00
10:50 AM,55.4,39.2,54,30.06,6.2,NNW,8.1,-,N/A,,Scattered Clouds,340,2012-12-12 09:50:00
11:20 AM,55.4,39.2,54,30.06,6.2,North,8.1,-,N/A,,Scattered Clouds,350,2012-12-12 10:20:00
11:50 AM,55.4,39.2,54,30.06,6.2,North,6.9,-,N/A,,Scattered Clouds,360,2012-12-12 10:50:00
12:20 PM,55.4,39.2,54,30.06,6.2,North,4.6,-,N/A,,Scattered Clouds,350,2012-12-12 11:20:00
12:50 PM,55.4,37.4,51,30.06,6.2,North,8.1,-,N/A,,Scattered Clouds,10,2012-12-12 11:50:00
1:20 PM,55.4,37.4,51,30.06,6.2,NNE,8.1,-,N/A,,Scattered Clouds,20,2012-12-12 12:20:00
1:50 PM,55.4,37.4,51,30.06,6.2,NNE,8.1,-,N/A,,Scattered Clouds,20,2012-12-12 12:50:00
2:20 PM,55.4,37.4,51,30.06,6.2,North,8.1,-,N/A,,Scattered Clouds,10,2012-12-12 13:20:00
2:50 PM,55.4,35.6,47,30.06,6.2,NNE,6.9,-,N/A,,Scattered Clouds,30,2012-12-12 13:50:00
3:20 PM,55.4,39.2,54,30.09,6.2,NNE,10.4,-,N/A,,Scattered Clouds,30,2012-12-12 14:20:00
3:50 PM,53.6,37.4,54,30.09,6.2,NE,8.1,-,N/A,,Scattered Clouds,40,2012-12-12 14:50:00
4:20 PM,53.6,39.2,58,30.09,6.2,NE,5.8,-,N/A,,Scattered Clouds,50,2012-12-12 15:20:00
4:50 PM,51.8,39.2,62,30.09,6.2,East,4.6,-,N/A,,Mostly Cloudy,80,2012-12-12 15:50:00
5:20 PM,51.8,39.2,62,30.09,6.2,East,4.6,-,N/A,,Mostly Cloudy,90,2012-12-12 16:20:00
5:50 PM,51.8,39.2,62,30.09,6.2,East,5.8,-,N/A,,Mostly Cloudy,80,2012-12-12 16:50:00
6:20 PM,50.0,39.2,66,30.09,6.2,East,8.1,-,N/A,,Scattered Clouds,100,2012-12-12 17:20:00
6:50 PM,50.0,37.4,62,30.09,6.2,East,6.9,-,N/A,,Scattered Clouds,90,2012-12-12 17:50:00
7:20 PM,50.0,37.4,62,30.09,6.2,East,9.2,-,N/A,,Scattered Clouds,90,2012-12-12 18:20:00
7:50 PM,51.8,35.6,54,30.12,-9999.0,Variable,3.5,-,N/A,,Clear,0,2012-12-12 18:50:00
8:20 PM,48.2,35.6,62,30.12,-9999.0,South,4.6,-,N/A,,Clear,180,2012-12-12 19:20:00
8:50 PM,48.2,35.6,62,30.12,-9999.0,Variable,1.2,-,N/A,,Clear,0,2012-12-12 19:50:00
9:20 PM,50.0,35.6,58,30.12,-9999.0,Variable,1.2,-,N/A,,Clear,0,2012-12-12 20:20:00
9:50 PM,48.2,35.6,62,30.12,-9999.0,Variable,3.5,-,N/A,,Clear,0,2012-12-12 20:50:00
10:20 PM,46.4,35.6,66,30.12,-9999.0,South,5.8,-,N/A,,Clear,170,2012-12-12 21:20:00
10:50 PM,46.4,35.6,66,30.12,-9999.0,South,8.1,-,N/A,,Clear,170,2012-12-12 21:50:00
11:20 PM,46.4,33.8,62,30.15,-9999.0,SSE,6.9,-,N/A,,Clear,160,2012-12-12 22:20:00
11:50 PM,46.4,33.8,62,30.15,-9999.0,SE,5.8,-,N/A,,Clear,130,2012-12-12 22:50:00